RH
87 76 58 49 48 55 53 39 59 91 100 99 100 100 99 88 92 99 94 78 65 92 90 67 60 68 73 70 73 67 64 66 76 80 100 91 62 59 60 54 41 27 32 25 22 23 21
87 80 64 63 54 74 62 49 45 63 79 82 81 99 100 100 84 69 75 69 63 98 100 68 64 80 74 90 82 72 75 81 80 100 94 70 68 62 60 55 42 34 26 29 32 27 23
100 100 85 90 64 72 89 58 49 58 97 85 74 69 72 68 56 54 68 68 86 100 98 73 78 78 68 80 86 83 93 99 100 93 74 88 82 68 56 48 44 39 44 43 33 25 27
100 96 99 98 96 66 78 71 54 50 68 100 96 81 74 54 40 33 65 100 100 76 82 85 62 39 47 53 68 99 100 100 100 100 99 92 89 73 57 58 59 50 44 39 42 36 39
100 100 92 84 79 48 82 70 68 47 56 99 100 98 72 40 35 34 81 78 70 99 97 63 35 27 36 45 61 92 100 100 100 90 97 90 71 66 65 60 50 48 50 60 57 57 51
93 100 82 84 67 50 88 70 60 49 42 73 100 98 69 43 36 60 70 90 83 72 65 44 39 35 44 57 92 100 100 96 98 98 91 87 83 77 71 62 55 54 55 58 58 54 49
100 87 76 79 71 57 61 58 70 58 40 70 100 100 77 48 46 64 96 97 84 88 76 68 57 67 55 74 100 100 81 73 69 68 66 70 76 72 62 57 58 57 55 54 51 45 34
100 100 98 100 87 59 59 56 71 64 52 77 100 100 84 69 64 93 100 100 99 100 100 100 91 73 66 80 87 84 81 88 98 99 100 87 74 62 58 66 58 54 51 47 41 35 30
100 100 99 100 85 72 68 83 73 77 66 83 100 100 98 84 68 74 89 79 87 93 100 93 68 62 74 87 94 84 100 98 92 86 72 61 50 48 51 44 41 43 37 32 25 19 16
100 100 100 100 100 78 64 73 63 78 82 91 100 100 100 100 93 90 83 79 93 87 100 83 78 97 89 90 86 100 100 92 74 63 55 46 44 42 37 39 38 28 23 18 15 16 15
89 100 100 100 97 90 67 56 66 98 95 100 100 100 100 100 100 100 98 100 100 98 73 78 80 92 98 100 100 100 84 71 67 64 50 37 44 40 42 43 34 24 16 16 19 14 8
77 80 100 81 82 88 90 61 61 86 97 100 100 99 100 100 100 100 100 100 93 77 66 81 88 77 74 91 94 96 89 70 57 41 38 46 44 36 36 35 28 20 16 21 12 6 6
99 98 84 86 89 90 82 62 84 74 96 100 96 97 100 100 100 100 100 90 77 70 67 57 65 71 90 100 100 79 55 38 33 38 53 57 54 34 34 29 20 17 24 12 6 6 5
100 90 85 99 85 100 94 59 82 88 100 100 100 100 100 100 100 100 98 96 90 84 68 75 73 95 100 81 65 56 39 38 43 51 48 47 46 36 31 21 18 24 20 7 6 6 6
100 99 87 100 95 94 90 68 69 78 96 100 100 100 100 100 100 100 100 94 84 69 72 69 91 93 78 55 48 36 37 50 51 44 46 43 44 37 28 21 22 27 11 7 7 6 6
100 100 100 100 100 91 86 88 66 76 100 100 100 85 99 97 100 99 100 94 73 74 81 97 93 79 78 68 55 40 48 55 50 42 40 42 38 35 35 26 29 24 8 8 8 7 7
100 100 100 100 100 96 96 96 75 96 100 100 100 94 88 82 100 100 94 87 74 76 95 97 94 81 74 65 45 50 56 57 64 54 45 40 40 41 29 29 36 20 9 8 8 8 6
100 100 100 100 100 86 100 94 82 88 100 100 100 100 99 94 100 100 100 97 76 87 91 91 94 76 59 46 46 47 59 59 66 55 46 48 46 37 29 39 37 15 10 9 8 9 7
99 100 100 100 100 100 100 97 98 100 100 100 100 100 98 99 94 100 100 99 84 74 87 88 88 67 56 38 40 60 60 68 58 50 51 49 40 38 40 45 28 13 11 10 9 9 9
100 100 100 100 100 100 100 96 100 100 100 100 100 94 89 100 99 100 94 94 86 77 85 84 84 63 41 44 52 68 66 59 57 52 50 48 48 42 48 39 16 12 12 12 11 10 10
100 100 100 100 100 100 100 94 100 100 100 100 99 84 94 100 100 96 82 80 73 85 82 88 68 52 47 50 75 76 65 63 54 55 52 45 47 53 54 27 13 12 12 12 12 11 11
100 100 100 100 100 100 93 100 100 100 100 100 100 99 100 100 95 91 72 70 83 90 89 77 56 50 65 72 91 84 66 62 59 56 50 51 55 61 47 17 13 13 13 13 13 12 11
99 100 100 100 100 88 86 100 98 100 100 100 94 93 100 100 96 77 81 80 90 85 89 63 52 54 76 92 88 85 68 66 56 56 54 56 65 57 29 16 14 14 14 14 13 12 11
100 100 100 100 100 100 100 81 100 100 100 91 73 98 100 96 85 72 78 78 83 99 82 67 55 74 84 93 92 75 70 57 57 58 54 70 56 44 17 15 15 15 16 16 14 13 12
100 100 100 100 100 100 86 93 100 100 100 100 100 100 96 81 68 65 80 99 96 93 71 53 82 86 100 91 81 73 60 62 63 62 68 68 54 26 17 16 15 16 15 16 15 14 14
100 100 100 100 100 100 67 100 100 100 100 100 100 100 94 72 65 89 100 95 85 76 64 76 100 100 96 88 74 68 63 67 70 66 76 63 54 18 16 16 16 16 15 15 15 14 15
100 100 100 100 100 100 100 100 100 100 100 100 99 79 75 70 100 100 93 84 88 80 83 100 97 100 94 79 75 55 60 66 86 82 67 70 34 17 16 16 17 17 16 16 17 16 15
100 100 100 100 99 84 100 100 100 100 99 77 86 66 80 100 99 95 81 99 88 96 100 96 99 99 86 74 64 62 68 94 78 80 79 71 19 16 16 17 20 19 18 17 19 19 19
100 100 100 100 77 92 100 100 100 100 100 95 76 81 100 95 95 88 100 89 100 100 100 99 98 84 78 67 75 76 88 81 91 72 90 34 18 16 16 18 19 19 18 17 18 18 18
Wind_Speed
45 40 40 36 32 35 33 33 36 35 33 31 34 29 31 33 31 33 36 40 38 33 32 33 29 29 30 30 30 31 33 34 34 35 36 41 38 37 38 40 45 45 48 49 54 54 57
45 44 42 41 37 36 37 36 36 37 38 38 33 35 35 37 40 40 41 39 36 32 32 31 32 32 33 33 33 34 34 34 36 37 42 43 45 43 46 50 52 54 55 56 60 62 65
45 43 43 44 40 41 38 37 36 36 35 37 39 38 39 38 38 37 37 36 31 32 32 34 34 35 36 34 35 36 35 37 40 43 45 46 48 52 54 58 59 62 63 65 68 72 74
45 44 44 46 49 48 42 37 37 36 37 37 41 38 38 36 36 38 33 28 32 33 35 33 32 33 37 37 36 37 37 44 45 48 50 51 54 58 59 61 66 70 74 76 79 82 85
44 47 50 48 50 45 39 39 39 37 37 37 39 38 35 34 36 33 32 32 32 29 29 31 32 33 39 37 36 39 43 44 46 50 52 57 60 62 66 70 74 77 82 83 85 88 90
47 48 53 52 49 43 40 41 39 39 39 39 37 36 36 33 36 34 31 28 28 30 32 33 36 36 39 40 39 39 42 47 52 55 57 61 64 68 72 77 81 84 88 90 93 96 101
48 53 55 53 50 40 39 41 40 40 40 37 37 38 36 32 34 32 33 31 39 36 37 40 41 40 40 41 41 47 50 51 53 58 64 66 70 73 78 82 85 89 93 97 102 108 111
54 51 55 52 52 46 41 41 40 42 41 36 36 39 35 33 34 31 35 38 39 41 44 44 43 44 45 44 44 48 52 55 60 64 68 72 77 82 84 87 91 97 102 108 112 117 123
54 53 55 58 55 47 43 44 44 41 40 37 37 38 35 36 36 37 38 39 42 44 45 44 45 47 46 47 48 53 56 58 62 67 71 76 81 84 88 96 100 107 112 116 120 124 132
59 53 54 58 52 49 49 45 46 40 40 37 37 39 36 37 38 40 41 44 44 47 45 42 44 48 51 52 53 55 58 64 66 71 76 83 84 89 93 98 102 109 116 120 126 135 136
58 56 58 55 54 49 49 46 45 43 39 37 38 39 39 42 40 40 43 45 45 45 45 45 45 48 50 54 57 60 64 68 74 80 84 85 89 93 94 102 109 115 121 126 130 126 115
55 60 59 58 53 48 47 51 45 42 39 37 39 40 43 38 40 41 43 49 49 51 50 49 51 55 58 59 62 64 72 77 80 85 87 91 95 98 101 109 116 123 128 127 113 99 91
63 60 61 56 51 48 46 51 47 42 40 39 40 40 39 37 40 43 46 50 52 56 57 59 59 59 60 62 67 71 75 80 82 83 88 96 108 109 108 113 128 131 129 112 91 85 78
64 64 62 49 56 45 45 52 46 44 41 40 40 43 41 41 41 44 49 52 56 59 63 60 57 59 63 66 70 74 79 82 86 91 93 100 107 108 113 119 118 124 121 99 83 73 67
68 64 62 51 49 48 56 51 49 45 45 44 41 43 45 43 43 47 52 55 60 61 58 58 59 62 67 73 74 77 82 87 92 95 100 104 108 110 117 122 124 125 110 91 78 69 60
65 63 60 56 54 55 52 48 49 45 45 48 48 47 44 45 45 50 54 58 60 60 60 61 65 71 75 78 80 86 87 93 97 102 103 108 106 114 120 127 128 124 98 83 76 68 63
66 65 62 58 58 55 46 46 47 45 44 46 48 51 50 48 48 53 55 61 61 61 64 68 72 76 78 81 84 88 93 99 101 108 110 110 111 115 122 128 129 122 96 83 74 69 65
70 69 62 59 62 54 45 51 50 44 48 49 49 51 52 52 53 56 60 62 61 63 67 70 72 75 77 84 88 92 101 103 107 109 113 111 112 117 122 128 130 113 91 82 75 69 63
71 69 61 61 60 55 50 56 46 44 46 51 52 52 53 53 55 59 60 61 65 70 71 74 77 79 84 91 92 99 103 106 106 110 110 113 117 123 128 129 128 107 91 82 74 67 60
75 66 62 59 57 59 56 53 50 47 49 51 51 55 56 57 59 61 62 64 69 73 75 78 83 85 91 92 97 106 105 107 108 111 111 117 124 129 132 134 119 100 88 80 73 64 56
74 65 70 65 61 59 57 50 53 49 51 54 56 57 60 60 62 64 64 67 71 75 78 81 86 91 94 95 102 106 108 109 117 112 117 123 128 135 135 135 113 97 86 78 70 62 54
69 66 69 67 58 53 57 52 51 52 53 56 56 58 62 63 66 67 69 71 74 78 81 85 89 92 96 103 106 107 111 120 112 117 122 127 133 135 140 127 107 94 84 76 69 61 53
69 72 74 60 55 57 54 52 49 51 54 58 56 59 60 62 66 68 71 74 78 82 85 89 93 96 101 105 107 112 117 111 114 121 126 134 137 138 136 116 101 90 81 74 67 60 53
61 70 72 64 58 51 47 49 51 53 56 56 58 58 62 64 68 71 75 78 83 85 90 94 95 100 103 108 112 114 111 114 118 124 132 139 138 143 123 107 96 87 78 69 63 58 53
61 58 56 56 52 46 52 51 51 53 57 60 62 64 68 70 74 73 78 81 84 88 91 94 98 103 107 112 112 111 115 118 123 129 135 143 143 134 113 103 94 87 77 70 62 56 51
44 48 54 53 48 48 52 51 50 54 58 62 64 66 67 69 73 77 79 82 87 89 92 96 101 104 109 111 114 116 119 122 127 134 141 143 147 123 108 102 94 87 77 69 64 57 49
47 52 52 48 47 49 50 50 51 55 60 63 67 67 67 71 76 79 81 84 87 92 95 100 103 106 111 115 115 118 123 128 133 138 144 145 138 115 107 100 95 88 79 70 62 58 53
52 48 48 47 48 50 48 50 53 58 60 63 65 66 70 75 79 81 84 87 92 95 98 102 104 109 112 116 118 121 127 132 136 143 144 149 126 113 108 100 95 87 80 69 61 56 52
45 52 46 46 51 49 52 55 58 58 62 65 67 70 75 80 80 86 88 92 93 96 100 103 107 111 114 116 119 127 132 134 140 146 148 136 118 112 109 100 93 86 80 70 61 54 51
Wind_Direction
333 335 336 329 318 313 310 309 296 298 300 296 303 299 300 299 300 301 306 305 307 304 301 302 305 305 305 303 302 298 294 294 294 294 291 295 290 285 282 280 277 271 275 270 264 268 268
330 332 331 331 326 313 310 308 306 300 298 301 301 296 295 296 301 301 302 305 306 301 300 300 300 302 303 301 299 297 295 293 293 289 292 293 292 289 287 286 284 282 278 278 276 271 266
324 323 328 331 322 317 310 307 307 303 302 301 300 298 300 303 305 304 302 301 306 302 303 302 297 299 300 299 299 298 299 297 289 290 294 293 292 291 292 292 292 290 288 285 281 282 279
321 322 324 325 326 322 309 306 305 305 301 302 300 300 299 302 302 303 297 299 306 305 304 301 303 306 298 301 299 296 295 295 294 296 294 292 291 292 294 296 296 294 291 289 291 287 285
317 318 321 322 324 323 305 303 304 305 310 304 300 297 298 304 305 300 298 305 304 306 303 304 306 311 303 301 299 299 301 296 291 294 292 293 293 294 295 296 294 294 294 293 292 288 287
316 313 321 319 322 318 304 301 299 301 304 302 297 294 297 299 302 299 298 301 313 306 299 299 305 309 301 299 298 297 295 299 299 297 295 295 296 298 299 300 299 298 296 293 289 286 285
309 311 318 319 319 318 308 306 298 297 302 303 302 291 293 298 298 304 303 300 311 305 300 298 305 303 301 299 300 302 300 297 296 296 296 297 297 297 297 299 299 297 293 288 285 285 286
306 307 314 314 316 319 309 311 304 300 299 302 300 294 294 301 296 298 303 304 306 308 306 303 306 304 304 301 299 300 300 300 301 303 303 303 302 301 301 300 297 294 292 290 290 289 287
308 307 311 313 313 316 310 304 304 302 304 299 299 294 294 300 299 295 297 302 305 307 304 304 305 304 302 301 301 302 302 301 302 301 301 301 301 302 300 301 300 295 294 293 292 290 288
307 306 305 310 308 312 313 308 304 303 303 297 297 292 296 298 299 296 298 301 304 306 305 307 306 306 305 305 304 303 301 301 301 302 303 303 302 302 303 301 297 295 294 294 293 292 289
310 304 308 307 306 306 311 310 305 302 302 299 296 294 298 303 298 299 301 303 304 305 307 307 307 307 307 305 304 304 303 302 304 305 304 305 303 305 305 305 302 300 300 301 299 295 291
304 306 304 306 306 300 306 312 308 302 298 298 297 295 299 298 296 299 302 304 307 311 310 308 307 306 305 305 304 303 304 305 306 308 307 308 310 309 309 307 304 303 305 307 302 297 293
301 303 304 302 301 298 306 310 305 302 301 300 299 299 297 291 296 301 303 308 309 308 305 306 305 305 306 305 304 306 307 308 309 312 313 312 313 312 311 310 308 310 312 310 305 300 296
299 301 304 294 298 290 305 309 301 302 298 296 297 297 293 291 297 303 306 308 308 307 307 307 309 307 305 306 306 308 309 311 315 315 315 316 314 312 311 309 311 315 318 313 309 301 295
297 300 302 286 291 292 299 301 299 293 293 292 295 295 291 292 298 303 304 305 307 308 308 310 309 307 308 310 309 310 312 313 315 316 315 316 315 314 312 314 318 323 321 317 312 305 297
294 296 295 277 285 297 299 297 295 291 289 288 291 295 292 294 297 301 303 306 309 310 310 310 309 310 310 310 311 313 315 316 317 318 318 318 317 314 316 318 323 326 323 319 314 308 302
291 290 289 277 285 294 287 293 291 288 289 292 288 290 290 295 296 301 303 307 310 312 313 311 311 311 311 311 313 314 316 318 319 320 320 320 318 318 320 323 327 329 325 321 317 312 306
292 292 282 279 285 293 283 297 291 287 288 290 288 289 293 293 297 299 303 305 309 311 311 311 313 314 312 314 316 317 319 319 320 320 320 319 320 322 323 327 329 329 326 323 320 317 309
294 289 279 275 283 287 286 294 285 288 290 289 289 291 293 294 297 300 303 304 308 311 312 313 313 313 313 315 317 319 320 321 321 321 320 321 323 324 327 330 331 330 327 325 322 319 312
293 282 275 275 274 282 285 288 281 285 291 293 288 289 292 295 297 300 301 306 308 310 312 312 314 314 316 317 319 319 322 321 322 321 322 324 325 327 329 331 332 330 328 327 325 321 315
288 273 270 267 276 281 282 282 279 284 292 294 296 292 293 294 296 297 302 306 307 312 313 313 314 316 318 319 319 321 321 322 322 322 325 326 327 328 330 332 332 331 330 328 326 323 317
277 267 264 264 272 273 280 277 277 283 288 291 295 292 293 294 295 296 301 307 311 312 312 313 314 317 319 319 320 320 321 322 323 325 327 327 329 330 331 332 332 331 331 329 327 324 318
263 254 252 261 265 270 277 274 277 285 290 292 292 293 293 294 297 299 303 307 310 311 311 313 315 318 318 319 319 320 321 323 325 326 328 329 330 331 332 332 332 331 331 330 327 324 320
251 244 252 256 262 265 266 274 280 283 288 296 295 291 292 296 298 300 303 306 309 312 312 314 317 318 318 318 320 320 322 324 325 327 328 330 331 331 332 332 333 331 330 329 326 324 320
240 242 249 251 254 263 268 273 277 283 289 295 292 290 294 296 300 304 305 308 311 313 313 316 316 317 318 319 320 322 323 325 326 326 328 330 331 332 332 332 333 332 331 329 327 325 321
235 242 247 247 256 264 270 275 279 289 292 290 290 292 296 300 305 307 308 310 313 313 315 317 316 316 317 319 320 322 324 325 326 326 328 330 331 332 332 331 332 332 331 329 326 324 321
235 236 243 249 258 264 266 274 280 286 288 290 290 295 300 304 309 308 309 312 311 315 316 316 316 315 317 319 320 322 325 325 325 327 327 329 331 331 331 331 331 331 331 329 326 323 321
229 236 245 251 256 260 270 278 281 286 288 290 295 301 305 309 308 307 310 310 313 315 314 314 316 318 319 320 320 323 325 325 326 326 328 329 330 330 331 330 330 329 329 328 325 321 319
226 234 246 249 257 262 273 279 282 289 292 294 300 303 307 307 306 309 310 310 314 312 313 315 317 318 320 320 322 324 325 324 325 326 327 328 329 329 330 329 329 327 327 326 323 319 316